TimeCST,TemperatureF,Dew PointF,Humidity,Sea Level PressureIn,VisibilityMPH,Wind Direction,Wind SpeedMPH,Gust SpeedMPH,PrecipitationIn,Events,Conditions,WindDirDegrees,DateUTC
12:15 AM,35.6,32.0,87,30.08,10.0,SSE,8.1,-,N/A,,Clear,150,2012-11-08 06:15:00
12:35 AM,35.6,32.0,87,30.08,10.0,SSE,8.1,-,N/A,,Mostly Cloudy,160,2012-11-08 06:35:00
12:55 AM,35.6,32.0,87,30.08,10.0,South,8.1,-,N/A,,Scattered Clouds,170,2012-11-08 06:55:00
1:15 AM,35.6,32.0,87,30.08,10.0,South,9.2,-,N/A,,Scattered Clouds,170,2012-11-08 07:15:00
1:55 AM,33.8,32.0,93,30.08,10.0,South,6.9,-,N/A,,Scattered Clouds,170,2012-11-08 07:55:00
2:15 AM,33.8,32.0,93,30.07,10.0,SSE,8.1,-,N/A,,Mostly Cloudy,150,2012-11-08 08:15:00
2:35 AM,35.6,32.0,87,30.06,10.0,SSE,6.9,-,N/A,,Mostly Cloudy,160,2012-11-08 08:35:00
2:55 AM,33.8,32.0,93,30.06,10.0,SSE,6.9,-,N/A,,Scattered Clouds,160,2012-11-08 08:55:00
3:15 AM,33.8,32.0,93,30.06,10.0,SSE,6.9,-,N/A,,Clear,160,2012-11-08 09:15:00
3:35 AM,33.8,32.0,93,30.04,10.0,SSE,8.1,-,N/A,,Clear,150,2012-11-08 09:35:00
3:55 AM,33.8,32.0,93,30.04,10.0,SSE,8.1,-,N/A,,Clear,150,2012-11-08 09:55:00
4:15 AM,33.8,32.0,93,30.04,10.0,SSE,8.1,-,N/A,,Clear,150,2012-11-08 10:15:00
4:35 AM,33.8,32.0,93,30.04,10.0,SE,6.9,-,N/A,,Clear,140,2012-11-08 10:35:00
4:55 AM,33.8,32.0,93,30.03,10.0,SE,8.1,-,N/A,,Clear,140,2012-11-08 10:55:00
5:15 AM,33.8,32.0,93,30.01,10.0,SE,8.1,-,N/A,,Clear,140,2012-11-08 11:15:00
5:35 AM,33.8,32.0,93,30.01,10.0,SSE,8.1,-,N/A,,Clear,150,2012-11-08 11:35:00
5:55 AM,33.8,32.0,93,30.01,10.0,SSE,10.4,-,N/A,,Clear,160,2012-11-08 11:55:00
6:15 AM,33.8,32.0,93,30.01,10.0,SSE,8.1,-,N/A,,Clear,150,2012-11-08 12:15:00
6:55 AM,33.8,32.0,93,30.01,10.0,SSE,8.1,-,N/A,,Clear,150,2012-11-08 12:55:00
7:15 AM,35.6,32.0,87,30.00,10.0,SSE,8.1,-,N/A,,Clear,150,2012-11-08 13:15:00
7:35 AM,35.6,32.0,87,30.01,10.0,SSE,6.9,-,N/A,,Clear,160,2012-11-08 13:35:00
7:55 AM,35.6,32.0,87,30.01,10.0,SE,8.1,-,N/A,,Clear,140,2012-11-08 13:55:00
8:15 AM,35.6,32.0,87,30.01,10.0,SSE,9.2,-,N/A,,Clear,150,2012-11-08 14:15:00
8:35 AM,37.4,32.0,81,30.00,10.0,SSE,11.5,-,N/A,,Clear,150,2012-11-08 14:35:00
8:55 AM,37.4,32.0,81,30.00,10.0,SSE,8.1,-,N/A,,Clear,160,2012-11-08 14:55:00
9:15 AM,41.0,33.8,76,29.99,10.0,South,11.5,-,N/A,,Clear,170,2012-11-08 15:15:00
9:35 AM,42.8,33.8,70,29.99,10.0,South,9.2,17.3,N/A,,Clear,170,2012-11-08 15:35:00
9:55 AM,44.6,35.6,71,29.98,10.0,South,12.7,17.3,N/A,,Clear,170,2012-11-08 15:55:00
10:35 AM,44.6,35.6,71,29.99,10.0,South,11.5,-,N/A,,Clear,190,2012-11-08 16:35:00
11:15 AM,46.4,33.8,62,29.98,10.0,South,12.7,19.6,N/A,,Clear,190,2012-11-08 17:15:00
11:35 AM,46.4,35.6,66,29.97,10.0,South,15.0,19.6,N/A,,Clear,190,2012-11-08 17:35:00
11:55 AM,46.4,35.6,66,29.96,10.0,South,9.2,-,N/A,,Clear,180,2012-11-08 17:55:00
12:15 PM,48.2,35.6,62,29.96,10.0,South,11.5,-,N/A,,Clear,190,2012-11-08 18:15:00
12:35 PM,50.0,35.6,58,29.96,10.0,SSW,9.2,-,N/A,,Clear,200,2012-11-08 18:35:00
12:55 PM,50.0,35.6,58,29.95,10.0,SSW,6.9,-,N/A,,Clear,210,2012-11-08 18:55:00
1:15 PM,50.0,35.6,58,29.94,10.0,South,6.9,-,N/A,,Clear,190,2012-11-08 19:15:00
1:35 PM,51.8,35.6,54,29.94,10.0,SSW,12.7,-,N/A,,Clear,200,2012-11-08 19:35:00
1:55 PM,51.8,35.6,54,29.94,10.0,SSW,9.2,-,N/A,,Clear,200,2012-11-08 19:55:00
2:15 PM,51.8,35.6,54,29.94,10.0,SSW,6.9,-,N/A,,Clear,210,2012-11-08 20:15:00
2:35 PM,51.8,35.6,54,29.95,10.0,SSW,5.8,-,N/A,,Clear,210,2012-11-08 20:35:00
2:55 PM,51.8,35.6,54,29.95,10.0,SW,9.2,-,N/A,,Clear,230,2012-11-08 20:55:00
3:15 PM,53.6,35.6,51,29.96,10.0,SW,9.2,-,N/A,,Clear,220,2012-11-08 21:15:00
3:35 PM,53.6,35.6,51,29.96,10.0,WSW,6.9,-,N/A,,Clear,240,2012-11-08 21:35:00
3:55 PM,51.8,35.6,54,29.96,10.0,West,6.9,-,N/A,,Clear,270,2012-11-08 21:55:00
4:15 PM,51.8,35.6,54,29.97,10.0,West,5.8,-,N/A,,Clear,270,2012-11-08 22:15:00
4:35 PM,50.0,35.6,58,29.98,10.0,NW,4.6,-,N/A,,Clear,320,2012-11-08 22:35:00
4:55 PM,48.2,35.6,62,29.98,10.0,Calm,Calm,-,N/A,,Clear,0,2012-11-08 22:55:00
5:15 PM,44.6,33.8,66,29.99,10.0,Calm,Calm,-,N/A,,Clear,0,2012-11-08 23:15:00
5:35 PM,42.8,35.6,76,29.99,10.0,Calm,Calm,-,N/A,,Clear,0,2012-11-08 23:35:00
5:55 PM,42.8,35.6,76,30.00,10.0,NNW,3.5,-,N/A,,Clear,340,2012-11-08 23:55:00
6:15 PM,41.0,33.8,76,30.01,10.0,Calm,Calm,-,N/A,,Clear,0,2012-11-09 00:15:00
6:35 PM,39.2,33.8,81,30.01,10.0,North,4.6,-,N/A,,Clear,10,2012-11-09 00:35:00
6:55 PM,37.4,33.8,87,30.01,10.0,Calm,Calm,-,N/A,,Clear,0,2012-11-09 00:55:00
7:15 PM,35.6,32.0,87,30.01,10.0,Calm,Calm,-,N/A,,Clear,0,2012-11-09 01:15:00
7:35 PM,33.8,32.0,93,30.01,10.0,Calm,Calm,-,N/A,,Clear,0,2012-11-09 01:35:00
7:55 PM,33.8,32.0,93,30.01,10.0,Calm,Calm,-,N/A,,Clear,0,2012-11-09 01:55:00
8:15 PM,33.8,32.0,93,30.02,10.0,Calm,Calm,-,N/A,,Clear,0,2012-11-09 02:15:00
8:35 PM,32.0,32.0,100,30.02,10.0,Calm,Calm,-,N/A,,Clear,0,2012-11-09 02:35:00
8:55 PM,32.0,32.0,100,30.02,10.0,Calm,Calm,-,N/A,,Clear,0,2012-11-09 02:55:00
9:15 PM,33.8,32.0,93,30.03,10.0,Calm,Calm,-,N/A,,Clear,0,2012-11-09 03:15:00
9:35 PM,32.0,32.0,100,30.03,10.0,Calm,Calm,-,N/A,,Clear,0,2012-11-09 03:35:00
9:55 PM,33.8,32.0,93,30.04,10.0,NNW,3.5,-,N/A,,Clear,340,2012-11-09 03:55:00
10:15 PM,33.8,32.0,93,30.04,10.0,North,3.5,-,N/A,,Clear,360,2012-11-09 04:15:00
10:35 PM,33.8,32.0,93,30.04,10.0,North,3.5,-,N/A,,Clear,350,2012-11-09 04:35:00
10:55 PM,33.8,32.0,93,30.05,10.0,North,3.5,-,N/A,,Clear,350,2012-11-09 04:55:00
11:15 PM,33.8,32.0,93,30.04,10.0,Calm,Calm,-,N/A,,Clear,0,2012-11-09 05:15:00
11:35 PM,32.0,30.2,93,30.05,10.0,Calm,Calm,-,N/A,,Clear,0,2012-11-09 05:35:00
11:55 PM,32.0,30.2,93,30.05,10.0,Calm,Calm,-,N/A,,Clear,0,2012-11-09 05:55:00